Weather History for Rickenbacker, OH

Change the Weather History Date:

Sunday, March 2, 2014

  Actual Average Record
Temperature  
Mean Temperature 28 °F -  
Max Temperature 37 °F 44 °F 62 °F (2004)
Min Temperature 18 °F 28 °F 15 °F (2009)
Degree Days  
Heating Degree Days 38    
Moisture  
Dew Point 19 °F    
Average Humidity 72    
Maximum Humidity 84    
Minimum Humidity 54    
Precipitation  
Precipitation 0.00 in - - ()
Sea Level Pressure  
Sea Level Pressure 30.16 in    
Wind  
Wind Speed 10 mph (North)    
Max Wind Speed 14 mph    
Max Gust Speed 16 mph    
Visibility 6 miles    
Events Snow    
Averages and records for this station are not official NWS values.
T = Trace of Precipitation, MM = Missing Value Source: NWS Daily Summary

Daily Weather History Graph

Daily Weather History Graph

Search for Another Location

Airport:

Trip Planner

Search our weather history database for the weather conditions in past years. The results will help you decide how hot, cold, wet, or windy it might be!

Date:

Astronomy

Mar. 02, 2014 Rise Set
Actual Time 7:03 AM EST 6:24 PM EST
Civil Twilight 6:36 AM EST 6:51 PM EST
Nautical Twilight 6:05 AM EST 7:23 PM EST
Astronomical Twilight 5:33 AM EST 7:54 PM EST
Moon 7:34 AM EST (3/2) 8:19 PM EST (3/2)
Length of Visible Light 12h 15m
Length of Day
11h 21m
Waxing Crescent, 3% of the Moon is Illuminated
Mar 2
Waxing Crescent
Mar 8
First Quarter
Mar 16
Full
Mar 23
Last Quarter
Mar 30
New

Hourly Weather History & Observations

Time (EST) Temp. Windchill Dew Point Humidity Pressure Visibility Wind Dir Wind Speed Gust Speed Precip Events Conditions
12:15 AM 37.2 °F 29.6 °F 21.9 °F 54% 30.13 in 10.0 mi North 11.5 mph - N/A   Overcast
12:35 AM 36.9 °F 28.7 °F 21.4 °F 54% 30.14 in 10.0 mi North 12.7 mph 16.1 mph N/A   Overcast
12:55 AM 36.0 °F 28.0 °F 21.2 °F 55% 30.15 in 10.0 mi NNW 11.5 mph 16.1 mph N/A   Overcast
1:15 AM 35.2 °F 26.6 °F 21.2 °F 57% 30.14 in 10.0 mi North 12.7 mph - N/A   Overcast
1:35 AM 34.9 °F 26.2 °F 21.9 °F 59% 30.14 in 10.0 mi North 12.7 mph - N/A   Overcast
1:55 AM 34.5 °F 27.9 °F 22.6 °F 62% 30.13 in 10.0 mi North 8.1 mph - N/A   Overcast
2:15 AM 34.3 °F 27.7 °F 22.8 °F 63% 30.13 in 10.0 mi North 8.1 mph - N/A   Overcast
2:35 AM 34.2 °F 26.8 °F 23.4 °F 65% 30.13 in 10.0 mi North 9.2 mph - N/A   Overcast
2:55 AM 33.8 °F 26.4 °F 23.5 °F 66% 30.12 in 10.0 mi North 9.2 mph - N/A   Overcast
3:10 AM 33.4 °F 27.3 °F 23.9 °F 68% 30.13 in 10.0 mi North 6.9 mph - N/A   Overcast
3:35 AM 33.1 °F 26.1 °F 24.4 °F 71% 30.11 in 7.0 mi North 8.1 mph - N/A   Overcast
3:55 AM 32.9 °F 25.3 °F 24.6 °F 72% 30.13 in 7.0 mi NNW 9.2 mph - N/A   Overcast
4:15 AM 32.9 °F 25.9 °F 24.8 °F 72% 30.14 in 7.0 mi NNW 8.1 mph - N/A   Overcast
4:35 AM 32.5 °F 24.8 °F 24.8 °F 73% 30.15 in 7.0 mi NNW 9.2 mph - N/A   Overcast
4:55 AM 32.0 °F 24.2 °F 25.3 °F 76% 30.15 in 4.0 mi NNW 9.2 mph - N/A   Overcast
5:15 AM 31.5 °F 25.8 °F 25.7 °F 79% 30.15 in 2.0 mi North 5.8 mph - N/A Snow Light Snow
5:35 AM 31.1 °F 24.5 °F 26.1 °F 82% 30.14 in 3.0 mi North 6.9 mph - N/A Snow Light Snow
5:55 AM 30.9 °F 22.8 °F 26.2 °F 83% 30.14 in 3.0 mi North 9.2 mph - N/A   Overcast
6:15 AM 30.7 °F 24.1 °F 26.2 °F 83% 30.13 in 3.0 mi North 6.9 mph - N/A Snow Light Snow
6:35 AM 30.6 °F 23.1 °F 25.9 °F 83% 30.15 in 2.0 mi North 8.1 mph - N/A Snow Light Snow
6:55 AM 30.2 °F 22.6 °F 25.7 °F 83% 30.15 in 1.8 mi North 8.1 mph - N/A Snow Light Snow
7:15 AM 30.0 °F 20.5 °F 25.5 °F 83% 30.14 in 1.0 mi North 11.5 mph - N/A Snow Light Snow
7:35 AM 29.5 °F 21.1 °F 25.2 °F 84% 30.15 in 1.2 mi North 9.2 mph - N/A Snow Light Snow
7:55 AM 28.9 °F 20.4 °F 24.4 °F 83% 30.15 in 1.8 mi North 9.2 mph - N/A Snow Light Snow
8:15 AM 28.6 °F 18.7 °F 24.1 °F 83% 30.14 in 1.8 mi NNE 11.5 mph - N/A Snow Light Snow
8:35 AM 28.4 °F 18.0 °F 23.7 °F 83% 30.15 in 4.0 mi NNE 12.7 mph - N/A Snow Light Snow
8:55 AM 28.2 °F 20.2 °F 23.2 °F 81% 30.16 in 3.0 mi NNE 8.1 mph - N/A Snow Light Snow
9:15 AM 28.2 °F 18.3 °F 23.2 °F 81% 30.16 in 3.0 mi North 11.5 mph - N/A   Overcast
9:35 AM 27.5 °F 17.4 °F 22.5 °F 81% 30.16 in 3.0 mi North 11.5 mph - N/A Snow Light Snow
9:55 AM 27.0 °F 16.1 °F 21.6 °F 80% 30.16 in 1.5 mi NNE 12.7 mph - N/A Snow Light Snow
10:15 AM 26.6 °F 16.2 °F 21.4 °F 81% 30.16 in 1.8 mi NNE 11.5 mph 16.1 mph N/A Snow Light Snow
10:35 AM 26.2 °F 15.8 °F 21.0 °F 81% 30.16 in 1.5 mi North 11.5 mph - N/A Snow Light Snow
10:55 AM 25.7 °F 14.6 °F 20.5 °F 81% 30.15 in 1.0 mi NNE 12.7 mph - N/A Snow Light Snow
11:15 AM 25.5 °F 15.5 °F 20.5 °F 81% 30.17 in 0.5 mi NNE 10.4 mph - N/A Snow Snow
11:35 AM 25.3 °F 16.0 °F 20.5 °F 82% 30.17 in 0.5 mi North 9.2 mph - N/A Snow Snow
11:55 AM 25.2 °F 16.5 °F 20.5 °F 82% 30.16 in 0.8 mi North 8.1 mph - N/A Snow Light Snow
12:15 PM 25.5 °F 14.9 °F 20.3 °F 81% 30.15 in 1.0 mi North 11.5 mph - N/A Snow Light Snow
12:35 PM 25.5 °F 14.9 °F 19.4 °F 78% 30.16 in 3.0 mi NNE 11.5 mph - N/A Snow Light Snow
12:55 PM 26.1 °F 16.2 °F 18.5 °F 73% 30.16 in 3.0 mi North 10.4 mph - N/A Snow Light Snow
1:15 PM 26.2 °F 16.4 °F 18.1 °F 71% 30.15 in 5.0 mi North 10.4 mph - N/A Snow Light Snow
1:35 PM 26.6 °F 17.5 °F 17.8 °F 69% 30.15 in 7.0 mi North 9.2 mph - N/A   Overcast
1:55 PM 27.1 °F 18.2 °F 17.6 °F 67% 30.15 in 10.0 mi NNE 9.2 mph - N/A   Overcast
2:15 PM 27.3 °F 17.7 °F 17.6 °F 67% 30.14 in 10.0 mi North 10.4 mph - N/A   Overcast
2:35 PM 27.3 °F 17.7 °F 17.2 °F 66% 30.14 in 10.0 mi North 10.4 mph - N/A   Overcast
2:55 PM 27.5 °F 18.0 °F 16.7 °F 64% 30.14 in 10.0 mi North 10.4 mph - N/A   Overcast
3:15 PM 27.9 °F 19.1 °F 16.5 °F 62% 30.15 in 10.0 mi North 9.2 mph - N/A   Overcast
3:35 PM 28.2 °F 19.5 °F 16.5 °F 62% 30.14 in 10.0 mi NNE 9.2 mph - N/A   Overcast
3:55 PM 28.2 °F 21.0 °F 16.9 °F 63% 30.14 in 10.0 mi North 6.9 mph - N/A   Overcast
4:15 PM 27.9 °F 18.4 °F 16.5 °F 62% 30.15 in 10.0 mi NNW 10.4 mph - N/A   Overcast
4:35 PM 27.0 °F 17.3 °F 15.8 °F 63% 30.15 in 10.0 mi NNW 10.4 mph - N/A   Overcast
4:55 PM 25.9 °F 14.3 °F 14.7 °F 63% 30.16 in 10.0 mi NNW 13.8 mph - N/A   Overcast
5:15 PM 24.8 °F 14.0 °F 14.0 °F 64% 30.16 in 10.0 mi NNW 11.5 mph - N/A   Overcast
5:35 PM 24.4 °F 13.5 °F 13.6 °F 64% 30.16 in 10.0 mi NNW 11.5 mph - N/A   Overcast
5:55 PM 24.1 °F 13.7 °F 13.5 °F 64% 30.16 in 10.0 mi NNW 10.4 mph - N/A   Overcast
6:15 PM 23.5 °F 11.3 °F 12.9 °F 64% 30.17 in 10.0 mi NNW 13.8 mph - N/A Snow Light Snow
6:35 PM 23.0 °F 11.7 °F 12.9 °F 65% 30.18 in 7.0 mi North 11.5 mph - N/A Snow Light Snow
6:55 PM 22.5 °F 9.9 °F 13.1 °F 67% 30.18 in 7.0 mi NNW 13.8 mph - N/A Snow Light Snow
7:15 PM 21.7 °F 9.0 °F 12.9 °F 69% 30.18 in 5.0 mi North 13.8 mph - N/A Snow Light Snow
7:35 PM 21.4 °F 9.1 °F 12.7 °F 69% 30.19 in 5.0 mi NNW 12.7 mph - N/A Snow Light Snow
7:55 PM 21.0 °F 10.6 °F 13.3 °F 72% 30.19 in 2.5 mi NNW 9.2 mph - N/A Snow Light Snow
8:15 PM 20.3 °F 9.0 °F 14.0 °F 77% 30.18 in 2.0 mi North 10.4 mph - N/A Snow Light Snow
8:35 PM 19.9 °F 7.9 °F 14.0 °F 78% 30.19 in 4.0 mi North 11.5 mph - N/A Snow Light Snow
8:55 PM 19.6 °F 7.4 °F 13.6 °F 78% 30.18 in 4.0 mi North 11.5 mph - N/A Snow Light Snow
9:15 PM 19.2 °F 5.8 °F 12.7 °F 76% 30.19 in 5.0 mi North 13.8 mph - N/A Snow Light Snow
9:35 PM 19.0 °F 7.5 °F 12.2 °F 75% 30.20 in 7.0 mi North 10.4 mph - N/A Snow Light Snow
9:55 PM 19.0 °F 6.8 °F 11.7 °F 73% 30.21 in 10.0 mi North 11.5 mph - N/A   Overcast
10:15 PM 18.9 °F 7.2 °F 10.6 °F 70% 30.21 in 2.0 mi North 10.4 mph - N/A Snow Light Snow
10:35 PM 18.5 °F 7.5 °F 10.2 °F 70% 30.21 in 7.0 mi North 9.2 mph - N/A Snow Light Snow
10:55 PM 18.3 °F 6.6 °F 9.7 °F 69% 30.23 in 10.0 mi North 10.4 mph - N/A Snow Light Snow
11:15 PM 18.5 °F 7.5 °F 8.4 °F 65% 30.22 in 10.0 mi North 9.2 mph - N/A   Overcast
11:35 PM 18.5 °F 5.5 °F 7.7 °F 63% 30.22 in 10.0 mi North 12.7 mph 16.1 mph N/A   Overcast
11:55 PM 18.5 °F 6.1 °F 7.3 °F 62% 30.22 in 10.0 mi North 11.5 mph - N/A   Overcast